Location: Newark
(44.1667°N, 8.2500°E)
Time: 08:45:23
(UTC+00:00)

Vanguard 2 - Visible Passes

Search period start: 06 December 2019 00:00
Search period end: 16 December 2019 00:00
Orbit: 553 x 2938 km, 32.9° (Epoch: 05 December)

Date Brightness Start Highest point End Pass type
(mag) Time Alt. Az. Time Alt. Az. Time Alt. Az.
06 Dec 11.3 00:44:09 25° ESE 00:44:09 25° ESE 00:52:24 10° E visible
06 Dec 10.6 02:45:34 44° SSW 02:49:32 49° SSE 03:04:16 10° E visible
06 Dec 10.5 04:46:59 17° WSW 05:00:58 55° S 05:13:41 10° ESE visible
07 Dec 11.2 01:01:07 31° ESE 01:01:07 31° ESE 01:10:57 10° E visible
07 Dec 10.5 03:02:31 45° SSW 03:07:21 53° S 03:22:14 10° E visible
07 Dec 10.5 05:03:56 15° WSW 05:18:47 53° S 05:31:21 10° ESE visible
08 Dec 11.0 01:18:00 37° SE 01:18:00 37° SE 01:29:15 10° E visible
08 Dec 10.5 03:19:25 43° SW 03:25:12 55° S 03:40:08 10° ESE visible
08 Dec 10.6 05:20:49 12° W 05:36:33 50° SSW 05:48:55 10° SE visible
08 Dec 11.9 23:33:27 11° E 23:33:27 11° E 23:33:57 10° E visible
09 Dec 10.8 01:34:51 43° SE 01:34:51 43° SE 01:47:25 10° E visible
09 Dec 10.5 03:36:15 41° SW 03:43:05 56° S 03:57:58 10° ESE visible
09 Dec 10.7 05:38:06 10° W 05:54:13 46° SSW 06:06:21 10° SE visible
09 Dec 11.7 23:50:15 15° E 23:50:15 15° E 23:52:48 10° E visible
10 Dec 10.6 01:51:39 49° SE 01:51:39 49° SE 02:05:28 10° E visible
10 Dec 10.5 03:53:03 37° WSW 04:00:57 56° S 04:15:43 10° ESE visible
10 Dec 10.8 05:56:17 10° W 06:11:47 41° SSW 06:23:36 10° SE visible
11 Dec 11.6 00:07:02 19° E 00:07:02 19° E 00:11:19 10° E visible
11 Dec 10.5 02:08:27 53° SSE 02:08:27 53° SSE 02:23:26 10° E visible
11 Dec 10.5 04:09:50 33° WSW 04:18:47 54° SSW 04:33:23 10° ESE visible
11 Dec 10.9 06:14:38 10° W 06:29:14 35° SSW 06:40:35 10° SSE visible
12 Dec 11.4 00:23:48 24° ESE 00:23:48 24° ESE 00:29:36 10° E visible
12 Dec 10.4 02:25:12 56° S 02:25:12 56° S 02:41:21 10° ESE visible
12 Dec 10.6 04:26:36 28° WSW 04:36:34 50° SSW 04:50:55 10° SE visible
13 Dec 11.3 00:40:33 28° ESE 00:40:33 28° ESE 00:47:46 10° E visible
13 Dec 10.4 02:41:58 57° S 02:42:45 57° S 02:59:12 10° ESE visible
13 Dec 10.7 04:43:21 24° WSW 04:54:15 46° SSW 05:08:18 10° SE visible
14 Dec 11.1 00:57:19 33° ESE 00:57:19 33° ESE 01:05:50 10° E visible
14 Dec 10.3 02:58:43 54° SSW 03:00:38 56° S 03:16:57 10° ESE visible
14 Dec 10.8 05:00:07 19° W 05:11:51 41° SSW 05:25:27 10° SE visible
15 Dec 11.0 01:14:05 38° ESE 01:14:05 38° ESE 01:23:49 10° E visible
15 Dec 10.4 03:15:29 50° SW 03:18:28 53° SSW 03:34:36 10° ESE visible
15 Dec 11.0 05:16:53 15° W 05:29:20 35° SSW 05:42:22 10° SSE visible
